Location: Enid
(36.3960°N, 97.8780°W)
Time: 16:42:39
(UTC-06:00)

Hubble Space Telescope - Visible Passes

Search period start: 04 March 2015 00:00
Search period end: 14 March 2015 01:00
Orbit: 543 x 548 km, 28.5° (Epoch: 03 March)

Date Brightness Start Highest point End Pass type
(mag) Time Alt. Az. Time Alt. Az. Time Alt. Az.
04 Mar 2.5 05:47:45 16° SW 05:49:15 19° SSW 05:52:15 10° SSE visible
05 Mar 2.6 05:40:05 16° SSW 05:40:56 17° SSW 05:43:38 10° SSE visible
06 Mar 2.8 05:32:27 14° SSW 05:32:37 14° SSW 05:34:50 10° SSE visible
07 Mar 3.1 05:24:52 11° SSW 05:24:52 11° SSW 05:25:42 10° S visible
